User: anonymous   Login
Location: *
(2.5500°S, 65.9667°W)
Time: 13:16:14
(UTC+00:00)
Language:

Cosmos 1980 - Orbit

View from above orbital plane
View from above orbital plane
View from above satellite
View from above satellite

Ground track
Ground track

The orbit data is extracted from the following two-line orbital elements,

1 19649U 88102A   22019.58580587  .00000248  00000-0  15327-3 0  9993
2 19649  71.0009 145.0055 0007651 280.2603  79.7657 14.14748209711536
Epoch (UTC): 19 January 2022 14:03:33
Eccentricity: 0.0007651
inclination: 71.0009°
perigee height: 837 km
apogee height: 848 km
right ascension of ascending node: 145.0055°
argument of perigee: 280.2603°
revolutions per day: 14.14748209
mean anomaly at epoch: 79.7657°
orbit number at epoch: 71153

The dashed part of the orbit path shows where the satellite is in the earth's shadow,  

DLR